Sturgis, MI

2:47 PM EDT on May 29, 2017 (GMT -0400)
Kirsch Municipal

Weather History for KIRS - November, 2013

Change the Weather History Date:

Friday, November 29, 2013

  Actual Average (KHAI) Record (KHAI)
Temperature  
Mean Temperature 28 °F -  
Max Temperature 35 °F 39 °F 62 °F (2006)
Min Temperature 21 °F 26 °F 4 °F (1955)
Degree Days  
Heating Degree Days 37    
Moisture  
Dew Point 19 °F    
Average Humidity 67    
Maximum Humidity 93    
Minimum Humidity 48    
Precipitation  
Precipitation 0.00 in - - ()
Sea Level Pressure  
Sea Level Pressure 30.52 in    
Wind  
Wind Speed 2 mph (SE)    
Max Wind Speed 15 mph    
Max Gust Speed -    
Visibility 10 miles    
Events      
Averages and records for this station are not official NWS values.
T = Trace of Precipitation, MM = Missing Value Source: NWS Daily Summary

Daily Weather History Graph

Daily Weather History Graph

Search for Another Location

Airport or City:

Trip Planner

Search our weather history database for the weather conditions in past years. The results will help you decide how hot, cold, wet, or windy it might be!

Date:

Astronomy

Nov. 29, 2013 Rise Set
Actual Time 7:47 AM EST 5:12 PM EST
Civil Twilight 7:16 AM EST 5:43 PM EST
Nautical Twilight 6:42 AM EST 6:17 PM EST
Astronomical Twilight 6:08 AM EST 6:51 PM EST
Moon 3:49 AM EST 2:59 PM EST
Length of Visible Light 10h 26m
Length of Day
9h 24m
Waning Crescent, 14% of the Moon is Illuminated
Nov 29
Waning Crescent
Dec 2
New
Dec 9
First Quarter
Dec 17
Full
Dec 25
Last Quarter

Hourly Weather History & Observations

Time (EST) Temp. Windchill Dew Point Humidity Pressure Visibility Wind Dir Wind Speed Gust Speed Precip Events Conditions
12:15 AM 28.4 °F - 19.4 °F 69% 30.40 in 10.0 mi Calm Calm - N/A   Overcast
12:35 AM 28.4 °F - 19.4 °F 69% 30.41 in 10.0 mi Calm Calm - N/A   Overcast
12:54 AM 28.4 °F - 19.4 °F 69% 30.41 in 10.0 mi Calm Calm - N/A   Overcast
1:15 AM 28.4 °F - 19.4 °F 69% 30.41 in 10.0 mi Calm Calm - N/A   Overcast
1:35 AM 28.4 °F - 19.4 °F 69% 30.42 in 10.0 mi Calm Calm - N/A   Overcast
1:54 AM 28.4 °F - 21.2 °F 74% 30.42 in 10.0 mi Calm Calm - N/A   Overcast
2:15 AM 28.4 °F - 21.2 °F 74% 30.43 in 10.0 mi Calm Calm - N/A   Overcast
2:35 AM 28.4 °F - 21.2 °F 74% 30.44 in 10.0 mi Calm Calm - N/A   Overcast
2:54 AM 28.4 °F 24.6 °F 21.2 °F 74% 30.45 in 10.0 mi NW 3.5 mph - N/A   Overcast
3:15 AM 28.4 °F - 21.2 °F 74% 30.46 in 10.0 mi Calm Calm - N/A   Overcast
3:35 AM 28.4 °F - 21.2 °F 74% 30.46 in 10.0 mi Calm Calm - N/A   Overcast
3:54 AM 28.4 °F - 21.2 °F 74% 30.47 in 10.0 mi Calm Calm - N/A   Overcast
4:15 AM 28.4 °F - 21.2 °F 74% 30.47 in 10.0 mi Calm Calm - N/A   Overcast
4:34 AM 28.4 °F - 21.2 °F 74% 30.48 in 10.0 mi Calm Calm - N/A   Overcast
4:55 AM 26.6 °F - 21.2 °F 80% 30.48 in 10.0 mi Calm Calm - N/A   Overcast
5:14 AM 26.6 °F - 21.2 °F 80% 30.50 in 10.0 mi Calm Calm - N/A   Overcast
5:35 AM 26.6 °F - 21.2 °F 80% 30.50 in 10.0 mi Calm Calm - N/A   Overcast
5:54 AM 26.6 °F - 21.2 °F 80% 30.51 in 10.0 mi Calm Calm - N/A   Overcast
6:14 AM 26.6 °F - 21.2 °F 80% 30.52 in 10.0 mi Calm Calm - N/A   Overcast
6:35 AM 26.6 °F - 21.2 °F 80% 30.52 in 10.0 mi Calm Calm - N/A   Overcast
6:54 AM 26.6 °F - 21.2 °F 80% 30.54 in 10.0 mi Calm Calm - N/A   Overcast
7:14 AM 24.8 °F - 21.2 °F 86% 30.55 in 10.0 mi Calm Calm - N/A   Scattered Clouds
7:35 AM 24.8 °F - 21.2 °F 86% 30.56 in 10.0 mi Calm Calm - N/A   Clear
7:54 AM 21.2 °F - 19.4 °F 93% 30.57 in 10.0 mi Calm Calm - N/A   Clear
8:14 AM 21.2 °F - 19.4 °F 93% 30.58 in 7.0 mi Calm Calm - N/A   Clear
8:35 AM 21.2 °F - 19.4 °F 93% 30.58 in 10.0 mi Calm Calm - N/A   Clear
8:54 AM 24.8 °F - 21.2 °F 86% 30.59 in 10.0 mi Calm Calm - N/A   Clear
9:14 AM 26.6 °F - 23.0 °F 86% 30.58 in 10.0 mi Calm Calm - N/A   Clear
9:35 AM 28.4 °F - 21.2 °F 74% 30.59 in 10.0 mi Calm Calm - N/A   Clear
9:54 AM 28.4 °F - 21.2 °F 74% 30.60 in 10.0 mi Calm Calm - N/A   Clear
10:15 AM 30.2 °F - 21.2 °F 69% 30.60 in 10.0 mi Calm Calm - N/A   Clear
10:35 AM 30.2 °F - 19.4 °F 64% 30.60 in 10.0 mi Calm Calm - N/A   Clear
10:54 AM 30.2 °F - 19.4 °F 64% 30.61 in 10.0 mi Calm Calm - N/A   Clear
11:15 AM 32.0 °F - 17.6 °F 55% 30.61 in 10.0 mi Calm Calm - N/A   Clear
11:35 AM 32.0 °F - 17.6 °F 55% 30.60 in 10.0 mi Calm Calm - N/A   Clear
11:54 AM 32.0 °F - 17.6 °F 55% 30.59 in 10.0 mi Calm Calm - N/A   Clear
12:15 PM 33.8 °F - 17.6 °F 52% 30.59 in 10.0 mi Calm Calm - N/A   Clear
12:35 PM 33.8 °F - 17.6 °F 52% 30.58 in 10.0 mi Calm Calm - N/A   Clear
12:54 PM 33.8 °F - 17.6 °F 52% 30.58 in 10.0 mi Calm Calm - N/A   Clear
1:15 PM 33.8 °F - 17.6 °F 52% 30.57 in 10.0 mi Calm Calm - N/A   Clear
1:35 PM 33.8 °F - 17.6 °F 52% 30.56 in 10.0 mi Calm Calm - N/A   Clear
1:54 PM 33.8 °F - 17.6 °F 52% 30.56 in 10.0 mi Calm Calm - N/A   Clear
2:15 PM 33.8 °F - 19.4 °F 56% 30.56 in 10.0 mi Calm Calm - N/A   Clear
2:35 PM 33.8 °F 28.6 °F 17.6 °F 52% 30.56 in 10.0 mi ESE 5.8 mph - N/A   Clear
2:54 PM 35.6 °F 31.7 °F 17.6 °F 48% 30.55 in 10.0 mi SSE 4.6 mph - N/A   Clear
3:15 PM 33.8 °F - 17.6 °F 52% 30.55 in 10.0 mi Calm Calm - N/A   Clear
3:35 PM 33.8 °F - 19.4 °F 56% 30.55 in 10.0 mi Calm Calm - N/A   Clear
3:54 PM 33.8 °F 30.8 °F 17.6 °F 52% 30.54 in 10.0 mi SSE 3.5 mph - N/A   Clear
4:15 PM 33.8 °F 29.6 °F 17.6 °F 52% 30.55 in 10.0 mi ESE 4.6 mph - N/A   Clear
4:35 PM 33.8 °F 29.6 °F 17.6 °F 52% 30.55 in 10.0 mi SSE 4.6 mph - N/A   Clear
4:54 PM 33.8 °F 29.6 °F 17.6 °F 52% 30.55 in 10.0 mi SSE 4.6 mph - N/A   Clear
5:15 PM 32.0 °F 27.5 °F 17.6 °F 55% 30.55 in 10.0 mi SE 4.6 mph - N/A   Clear
5:35 PM 30.2 °F 25.4 °F 17.6 °F 60% 30.55 in 10.0 mi SE 4.6 mph - N/A   Clear
5:54 PM 30.2 °F 25.4 °F 17.6 °F 60% 30.55 in 10.0 mi SE 4.6 mph - N/A   Clear
6:15 PM 30.2 °F 26.7 °F 17.6 °F 60% 30.55 in 10.0 mi SE 3.5 mph - N/A   Clear
6:35 PM 30.2 °F 23.4 °F 17.6 °F 60% 30.55 in 10.0 mi SE 6.9 mph - N/A   Clear
6:54 PM 30.2 °F 22.6 °F 17.6 °F 60% 30.54 in 10.0 mi SE 8.1 mph - N/A   Clear
7:15 PM 28.4 °F 21.2 °F 17.6 °F 64% 30.54 in 10.0 mi SE 6.9 mph - N/A   Clear
7:35 PM 28.4 °F 20.4 °F 17.6 °F 64% 30.54 in 10.0 mi SE 8.1 mph - N/A   Clear
7:54 PM 28.4 °F 20.4 °F 17.6 °F 64% 30.53 in 10.0 mi SE 8.1 mph - N/A   Clear
8:15 PM 28.4 °F 20.4 °F 17.6 °F 64% 30.53 in 10.0 mi SE 8.1 mph - N/A   Clear
8:35 PM 28.4 °F 19.7 °F 17.6 °F 64% 30.52 in 10.0 mi SE 9.2 mph - N/A   Clear
8:54 PM 28.4 °F 19.1 °F 17.6 °F 64% 30.51 in 10.0 mi SE 10.4 mph - N/A   Clear
9:15 PM 28.4 °F 20.4 °F 17.6 °F 64% 30.50 in 10.0 mi SE 8.1 mph - N/A   Clear
9:35 PM 28.4 °F 19.7 °F 17.6 °F 64% 30.50 in 10.0 mi SE 9.2 mph - N/A   Clear
9:54 PM 28.4 °F 20.4 °F 17.6 °F 64% 30.49 in 10.0 mi SE 8.1 mph - N/A   Clear
10:15 PM 28.4 °F 20.4 °F 17.6 °F 64% 30.49 in 10.0 mi SE 8.1 mph - N/A   Clear
10:35 PM 28.4 °F 20.4 °F 17.6 °F 64% 30.49 in 10.0 mi SSE 8.1 mph - N/A   Clear
10:54 PM 28.4 °F 20.4 °F 17.6 °F 64% 30.49 in 10.0 mi SSE 8.1 mph - N/A   Clear
11:15 PM 28.4 °F 23.3 °F 19.4 °F 69% 30.49 in 10.0 mi SSE 4.6 mph - N/A   Clear
11:35 PM 28.4 °F 17.0 °F 19.4 °F 69% 30.48 in 10.0 mi SSE 15.0 mph - N/A   Clear
11:54 PM 28.4 °F 18.5 °F 19.4 °F 69% 30.47 in 10.0 mi SSE 11.5 mph - N/A   Clear